Погода в Мичурино

Россия / Брянская область     53°28′56″N   33°21′22″E
темп.,
°C
ветер,
м/с
пор.,
м/с
влажн.,
%
обл.,
%
осадки,
мм/ч
давл.,
гПа
погр.,
м
8 марта, пн
пн800:00−5зюз4128720 0.0 1003436
03:00−5з4129210 0.0 1003484
06:00−6з4129339 0.0 1003525
09:00−6зсз4109069 0.1 1004594
12:00−3зсз4684100 0.1 1007783
15:00−2сз4675100 0.6 10071099
18:00−6ссз388492 0.2 1009349
21:00−9сз279379 0.2 1011168
9 марта, вт
вт900:00−10ссз369591 0.0 1013193
03:00−10ссз389485 0.1 1015308
06:00−13ссз369690 0.0 1017158
09:00−12ссз369183 0.0 1019259
12:00−8ссз367742 0.0 1020705
15:00−7сз467336 0.0 10201097
18:00−9сз3783100 0.1 1021574
21:00−12сз239367 0.1 102471
10 марта, ср
ср1000:00−13ссз22940 0.0 102525
03:00−14зсз129419 0.0 102621
06:00−12зюз1193100 0.0 102636
09:00−10ююз2493100 0.3 1027256
12:00−7з2591100 1.1 1027481
15:00−4зсз2592100 2.5 1027504
18:00−9всв5994100 1.4 1027400
21:00−12всв379498 1.8 1029316
11 марта, чт
чт1100:00−14в379596 0.1 1031301
03:00−16вюв379196 0.1 1032232
06:00−18вюв3686100 0.0 1033189
09:00−17юв3684100 0.0 1033228
12:00−12юв35806 0.0 1032328
15:00−9юв36813 0.0 1032445
18:00−10юв368814 0.0 1030317
21:00−14юв38929 0.0 1031221
12 марта, пт
пт1200:00−16ююв389617 0.0 1031206
03:00−15ююв499755 0.0 1029244
06:00−14ююв4119499 0.0 1027286
09:00−10ююв6128595 0.0 1026419
12:00−5ю71379100 0.0 1024757
15:00−4ю81578100 0.0 10221119
18:00−5ю81691100 0.5 10201135
21:00−5ю81792100 1.9 10191093